TimeCST,TemperatureF,Dew PointF,Humidity,Sea Level PressureIn,VisibilityMPH,Wind Direction,Wind SpeedMPH,Gust SpeedMPH,PrecipitationIn,Events,Conditions,WindDirDegrees,DateUTC
12:54 AM,26.1,21.0,81,30.27,10.0,ENE,13.8,-,N/A,,Overcast,60,2012-11-09 06:54:00
1:54 AM,25.0,21.0,85,30.24,10.0,ENE,13.8,-,N/A,,Overcast,60,2012-11-09 07:54:00
2:54 AM,25.0,21.0,85,30.24,10.0,ENE,16.1,-,N/A,,Overcast,60,2012-11-09 08:54:00
3:54 AM,24.1,21.0,88,30.23,10.0,NE,15.0,-,N/A,,Overcast,50,2012-11-09 09:54:00
4:54 AM,24.1,19.9,84,30.22,10.0,ENE,17.3,25.3,N/A,,Overcast,70,2012-11-09 10:54:00
5:54 AM,24.1,19.9,84,30.20,10.0,ENE,17.3,25.3,N/A,,Overcast,60,2012-11-09 11:54:00
6:54 AM,24.1,19.0,81,30.19,10.0,ENE,17.3,-,N/A,,Overcast,60,2012-11-09 12:54:00
7:54 AM,24.1,19.9,84,30.20,10.0,East,18.4,25.3,N/A,,Overcast,80,2012-11-09 13:54:00
8:35 AM,24.8,21.2,86,30.12,10.0,ENE,16.1,-,N/A,,Overcast,70,2012-11-09 14:35:00
8:54 AM,24.1,21.0,88,30.21,10.0,ENE,15.0,26.5,N/A,,Overcast,70,2012-11-09 14:54:00
9:54 AM,24.1,21.0,88,30.20,10.0,ENE,17.3,24.2,N/A,,Overcast,70,2012-11-09 15:54:00
10:54 AM,25.0,21.0,85,30.19,10.0,ENE,19.6,27.6,N/A,,Overcast,70,2012-11-09 16:54:00
11:13 AM,24.8,21.2,86,30.12,10.0,East,19.6,25.3,N/A,,Overcast,80,2012-11-09 17:13:00
11:54 AM,26.1,21.0,81,30.17,10.0,ENE,19.6,25.3,N/A,,Overcast,70,2012-11-09 17:54:00
12:21 PM,24.8,21.2,86,30.09,10.0,NE,16.1,27.6,N/A,,Overcast,50,2012-11-09 18:21:00
12:54 PM,24.1,21.0,88,30.17,10.0,NE,15.0,27.6,N/A,,Overcast,50,2012-11-09 18:54:00
1:52 PM,23.0,17.6,80,30.06,10.0,NE,16.1,23.0,N/A,,Overcast,50,2012-11-09 19:52:00
1:54 PM,23.0,17.1,78,30.15,10.0,NE,16.1,23.0,N/A,,Overcast,50,2012-11-09 19:54:00
2:11 PM,23.0,15.8,74,30.06,10.0,ENE,19.6,25.3,N/A,,Overcast,60,2012-11-09 20:11:00
2:54 PM,23.0,14.0,68,30.13,10.0,NE,15.0,25.3,N/A,,Overcast,40,2012-11-09 20:54:00
3:54 PM,21.9,12.9,68,30.13,10.0,ENE,12.7,-,N/A,,Overcast,60,2012-11-09 21:54:00
4:54 PM,21.9,14.0,72,30.12,10.0,ENE,16.1,26.5,N/A,,Overcast,60,2012-11-09 22:54:00
5:54 PM,21.0,14.0,74,30.10,10.0,NE,13.8,23.0,N/A,,Overcast,50,2012-11-09 23:54:00
6:54 PM,19.9,14.0,78,30.11,10.0,NE,12.7,20.7,N/A,,Overcast,50,2012-11-10 00:54:00
7:31 PM,19.4,15.8,86,30.02,9.0,ENE,18.4,24.2,N/A,,Overcast,70,2012-11-10 01:31:00
7:54 PM,19.0,17.1,92,30.09,5.0,ENE,19.6,24.2,N/A,,Overcast,60,2012-11-10 01:54:00
8:54 PM,19.0,17.1,92,30.09,4.0,NE,13.8,20.7,0.00,,Overcast,50,2012-11-10 02:54:00
9:54 PM,19.9,18.0,92,30.09,4.0,NE,10.4,18.4,N/A,,Overcast,50,2012-11-10 03:54:00
10:54 PM,19.9,18.0,92,30.05,4.0,NE,15.0,21.9,N/A,,Overcast,40,2012-11-10 04:54:00
11:17 PM,19.4,17.6,93,29.95,1.8,NNE,15.0,-,0.00,Snow,Light Snow,30,2012-11-10 05:17:00
11:54 PM,19.9,18.0,92,30.04,1.2,NNE,15.0,-,0.03,Snow,Light Snow,30,2012-11-10 05:54:00